Back to catalog

ATLAS 5 CENTAUR DEB

AliveHEO
NORAD 44683·DEBRIS·🇺🇸 United States

Launched Oct 17, 2018 from Cape Canaveral Space Force Station

Loading…

Next Passes (next 24 hours)

TLE

FreshSource: Space-Track

Epoch: Sep 10, 2026, 18:16 UTC

1 44683U 18079AV  26253.76136644 -.00000201  00000-0  00000-0 0  9999
2 44683  13.4324  23.5343 4708058 339.7472   6.4210  1.83233341 52896

Track ATLAS 5 CENTAUR DEB in real time with AllMySat

Download on the App Store